| time (UTC) | temp F | wind direction | speed MPH | gust MPH | rain 1hr in | rain 24hr in | rain mn in | humidity % | barometer mb |
| 20260905171114 | 76 | 125 | 0.0 | 0.0 | 0.00 | 0.00 | 0.00 | 48 | 1025.1 |
| 20260905170610 | 75 | 196 | 0.0 | 0.0 | 0.00 | 0.00 | 0.00 | 44 | 1024.8 |
| 20260905170105 | 74 | 184 | 0.0 | 1.0 | 0.00 | 0.00 | 0.00 | 41 | 1024.9 |
| 20260905165559 | 73 | 108 | 0.0 | 0.0 | 0.00 | 0.00 | 0.00 | 44 | 1025.1 |
| 20260905165055 | 73 | 152 | 2.0 | 2.0 | 0.00 | 0.00 | 0.00 | 43 | 1024.8 |
| 20260905164550 | 72 | 135 | 0.0 | 0.0 | 0.00 | 0.00 | 0.00 | 46 | 1025.2 |
| 20260905164044 | 71 | 116 | 0.0 | 0.0 | 0.00 | 0.00 | 0.00 | 50 | 1025.1 |
| 20260905163540 | 71 | 183 | 0.0 | 1.0 | 0.00 | 0.00 | 0.00 | 45 | 1025.3 |
| 20260905163036 | 71 | 152 | 0.0 | 1.0 | 0.00 | 0.00 | 0.00 | 47 | 1025.1 |
| 20260905162532 | 70 | 37 | 0.0 | 0.0 | 0.00 | 0.00 | 0.00 | 54 | 1025.1 |
| 20260905162027 | 70 | 178 | 0.0 | 0.0 | 0.00 | 0.00 | 0.00 | 50 | 1025.3 |
| 20260905161526 | 69 | 187 | 0.0 | 1.0 | 0.00 | 0.00 | 0.00 | 50 | 1024.9 |
| 20260905161024 | 69 | 180 | 0.0 | 0.0 | 0.00 | 0.00 | 0.00 | 51 | 1025.1 |
| 20260905160517 | 69 | 130 | 0.0 | 0.0 | 0.00 | 0.00 | 0.00 | 55 | 1024.9 |
| 20260905160018 | 69 | 148 | 1.0 | 1.0 | 0.00 | 0.00 | 0.00 | 55 | 1025.2 |
| 20260905155518 | 69 | 149 | 1.0 | 1.0 | 0.00 | 0.00 | 0.00 | 52 | 1024.9 |
| 20260905155016 | 68 | 131 | 0.0 | 1.0 | 0.00 | 0.00 | 0.00 | 51 | 1025.2 |
| 20260905154511 | 68 | 148 | 0.0 | 0.0 | 0.00 | 0.00 | 0.00 | 52 | 1025.3 |
| 20260905154007 | 67 | 161 | 0.0 | 0.0 | 0.00 | 0.00 | 0.00 | 52 | 1025.2 |
| 20260905153503 | 66 | 105 | 0.0 | 0.0 | 0.00 | 0.00 | 0.00 | 58 | 1025.3 |
| 20260905153003 | 66 | 91 | 0.0 | 0.0 | 0.00 | 0.00 | 0.00 | 55 | 1025.2 |
| 20260905152502 | 65 | 151 | 0.0 | 0.0 | 0.00 | 0.00 | 0.00 | 62 | 1025.4 |
| 20260905151957 | 65 | 136 | 1.0 | 1.0 | 0.00 | 0.00 | 0.00 | 67 | 1025.4 |
| 20260905151452 | 64 | 142 | 0.0 | 0.0 | 0.00 | 0.00 | 0.00 | 64 | 1025.2 |
| 20260905150947 | 63 | 140 | 0.0 | 0.0 | 0.00 | 0.00 | 0.00 | 69 | 1025.2 |
| 20260905150442 | 62 | 163 | 0.0 | 0.0 | 0.00 | 0.00 | 0.00 | 67 | 1025.1 |
| 20260905145938 | 62 | 106 | 0.0 | 0.0 | 0.00 | 0.00 | 0.00 | 68 | 1025.3 |
| 20260905145433 | 62 | 91 | 2.0 | 2.0 | 0.00 | 0.00 | 0.00 | 71 | 1025.7 |
| 20260905144933 | 62 | 119 | 2.0 | 2.0 | 0.00 | 0.00 | 0.00 | 74 | 1025.6 |
| 20260905144428 | 61 | 144 | 0.0 | 0.0 | 0.00 | 0.00 | 0.00 | 76 | 1025.4 |
| 20260905143927 | 60 | 132 | 0.0 | 0.0 | 0.00 | 0.00 | 0.00 | 78 | 1025.8 |
| 20260905143420 | 60 | 103 | 0.0 | 0.0 | 0.00 | 0.00 | 0.00 | 80 | 1025.7 |
| 20260905142915 | 59 | 103 | 0.0 | 0.0 | 0.00 | 0.00 | 0.00 | 81 | 1025.6 |
| 20260905142414 | 58 | 143 | 0.0 | 0.0 | 0.00 | 0.00 | 0.00 | 80 | 1025.7 |
| 20260905141910 | 57 | 144 | 0.0 | 0.0 | 0.00 | 0.00 | 0.00 | 82 | 1025.7 |
| 20260905141405 | 57 | 147 | 0.0 | 0.0 | 0.00 | 0.00 | 0.00 | 83 | 1025.6 |
| 20260905140901 | 58 | 111 | 0.0 | 0.0 | 0.00 | 0.00 | 0.00 | 80 | 1025.6 |
| 20260905140355 | 57 | 164 | 0.0 | 0.0 | 0.00 | 0.00 | 0.00 | 78 | 1025.7 |
| 20260905135854 | 55 | 172 | 0.0 | 0.0 | 0.00 | 0.00 | 0.00 | 82 | 1025.8 |
| 20260905135350 | 52 | 152 | 0.0 | 0.0 | 0.00 | 0.00 | 0.00 | 89 | 1025.7 |
| 20260905134846 | 50 | 148 | 0.0 | 0.0 | 0.00 | 0.00 | 0.00 | 95 | 1025.4 |
| 20260905134344 | 49 | 140 | 0.0 | 0.0 | 0.00 | 0.00 | 0.00 | 95 | 1025.4 |
| 20260905133838 | 49 | 146 | 0.0 | 0.0 | 0.00 | 0.00 | 0.00 | 96 | 1025.6 |
| 20260905133334 | 49 | 154 | 0.0 | 0.0 | 0.00 | 0.00 | 0.00 | 97 | 1025.4 |
| 20260905132832 | 48 | 110 | 0.0 | 1.0 | 0.00 | 0.00 | 0.00 | 97 | 1025.4 |
| 20260905132329 | 48 | 177 | 0.0 | 0.0 | 0.00 | 0.00 | 0.00 | 97 | 1025.3 |
| 20260905131822 | 48 | 178 | 0.0 | 0.0 | 0.00 | 0.00 | 0.00 | 97 | 1025.2 |
| 20260905131319 | 48 | 143 | 0.0 | 0.0 | 0.00 | 0.00 | 0.00 | 97 | 1025.2 |
| 20260905130814 | 48 | 167 | 0.0 | 0.0 | 0.00 | 0.00 | 0.00 | 97 | 1025.2 |
| 20260905130312 | 48 | 162 | 0.0 | 0.0 | 0.00 | 0.00 | 0.00 | 97 | 1025.1 |
| 20260905125808 | 48 | 145 | 0.0 | 0.0 | 0.00 | 0.00 | 0.00 | 97 | 1025.2 |
| 20260905125308 | 48 | 144 | 0.0 | 0.0 | 0.00 | 0.00 | 0.00 | 97 | 1025.1 |
| 20260905124759 | 48 | 121 | 0.0 | 0.0 | 0.00 | 0.00 | 0.00 | 97 | 1024.9 |
| 20260905124255 | 48 | 173 | 0.0 | 0.0 | 0.00 | 0.00 | 0.00 | 97 | 1024.8 |
| 20260905123749 | 48 | 177 | 0.0 | 0.0 | 0.00 | 0.00 | 0.00 | 96 | 1024.7 |
| 20260905123247 | 48 | 156 | 0.0 | 0.0 | 0.00 | 0.00 | 0.00 | 96 | 1024.6 |
| 20260905122746 | 49 | 150 | 0.0 | 0.0 | 0.00 | 0.00 | 0.00 | 96 | 1024.8 |
| 20260905122240 | 48 | 177 | 0.0 | 0.0 | 0.00 | 0.00 | 0.00 | 96 | 1024.6 |
| 20260905121736 | 48 | 204 | 0.0 | 0.0 | 0.00 | 0.00 | 0.00 | 96 | 1024.6 |
| 20260905121232 | 48 | 172 | 0.0 | 0.0 | 0.00 | 0.00 | 0.00 | 95 | 1024.6 |
| 20260905120730 | 49 | 148 | 0.0 | 0.0 | 0.00 | 0.00 | 0.00 | 95 | 1024.6 |
| 20260905120231 | 48 | 167 | 0.0 | 0.0 | 0.00 | 0.00 | 0.00 | 95 | 1024.2 |
| 20260905115725 | 49 | 171 | 0.0 | 0.0 | 0.00 | 0.00 | 0.00 | 95 | 1024.5 |
| 20260905115220 | 49 | 177 | 0.0 | 0.0 | 0.00 | 0.00 | 0.00 | 95 | 1024.5 |
| 20260905114715 | 49 | 180 | 0.0 | 0.0 | 0.00 | 0.00 | 0.00 | 94 | 1024.5 |
| 20260905114213 | 49 | 180 | 0.0 | 0.0 | 0.00 | 0.00 | 0.00 | 94 | 1024.5 |
| 20260905113713 | 50 | 139 | 0.0 | 0.0 | 0.00 | 0.00 | 0.00 | 95 | 1024.5 |
| 20260905113208 | 49 | 137 | 0.0 | 0.0 | 0.00 | 0.00 | 0.00 | 95 | 1024.6 |
| 20260905112708 | 49 | 178 | 0.0 | 0.0 | 0.00 | 0.00 | 0.00 | 95 | 1024.5 |
| 20260905112204 | 49 | 160 | 0.0 | 0.0 | 0.00 | 0.00 | 0.00 | 94 | 1024.6 |
| 20260905111704 | 49 | 160 | 0.0 | 0.0 | 0.00 | 0.00 | 0.00 | 94 | 1024.7 |
| 20260905111204 | 49 | 118 | 0.0 | 1.0 | 0.00 | 0.00 | 0.00 | 94 | 1024.6 |
| 20260905110702 | 49 | 181 | 0.0 | 0.0 | 0.00 | 0.00 | 0.00 | 94 | 1024.3 |
| 20260905110157 | 49 | 174 | 0.0 | 0.0 | 0.00 | 0.00 | 0.00 | 94 | 1024.5 |
| 20260905105653 | 49 | 152 | 0.0 | 0.0 | 0.00 | 0.00 | 0.00 | 94 | 1024.5 |
| 20260905105151 | 49 | 144 | 0.0 | 0.0 | 0.00 | 0.00 | 0.00 | 93 | 1024.1 |
| 20260905104647 | 50 | 140 | 0.0 | 0.0 | 0.00 | 0.00 | 0.00 | 93 | 1024.3 |
| 20260905104142 | 50 | 136 | 0.0 | 0.0 | 0.00 | 0.00 | 0.00 | 92 | 1024.6 |
| 20260905103637 | 50 | 138 | 0.0 | 0.0 | 0.00 | 0.00 | 0.00 | 94 | 1024.3 |
| 20260905103133 | 50 | 152 | 0.0 | 0.0 | 0.00 | 0.00 | 0.00 | 93 | 1024.2 |
| 20260905102629 | 50 | 152 | 0.0 | 0.0 | 0.00 | 0.00 | 0.00 | 92 | 1024.3 |
| 20260905102125 | 50 | 165 | 0.0 | 0.0 | 0.00 | 0.00 | 0.00 | 92 | 1024.5 |
| 20260905101624 | 51 | 160 | 0.0 | 0.0 | 0.00 | 0.00 | 0.00 | 92 | 1024.3 |
| 20260905101122 | 51 | 160 | 0.0 | 0.0 | 0.00 | 0.00 | 0.00 | 91 | 1024.0 |
| 20260905100618 | 51 | 128 | 0.0 | 0.0 | 0.00 | 0.00 | 0.00 | 92 | 1024.1 |
| 20260905100114 | 50 | 163 | 0.0 | 0.0 | 0.00 | 0.00 | 0.00 | 91 | 1024.0 |
| 20260905095607 | 50 | 163 | 0.0 | 0.0 | 0.00 | 0.00 | 0.00 | 90 | 1024.2 |
| 20260905095102 | 51 | 163 | 0.0 | 0.0 | 0.00 | 0.00 | 0.00 | 90 | 1024.1 |
| 20260905094558 | 51 | 163 | 0.0 | 0.0 | 0.00 | 0.00 | 0.00 | 91 | 1024.2 |
| 20260905094057 | 51 | 163 | 0.0 | 0.0 | 0.00 | 0.00 | 0.00 | 90 | 1024.0 |
| 20260905093557 | 51 | 163 | 0.0 | 0.0 | 0.00 | 0.00 | 0.00 | 90 | 1024.1 |
| 20260905093054 | 52 | 143 | 0.0 | 0.0 | 0.00 | 0.00 | 0.00 | 90 | 1024.2 |
| 20260905092553 | 52 | 151 | 0.0 | 0.0 | 0.00 | 0.00 | 0.00 | 89 | 1024.2 |
| 20260905092049 | 52 | 165 | 0.0 | 0.0 | 0.00 | 0.00 | 0.00 | 88 | 1024.0 |
| 20260905091548 | 52 | 154 | 0.0 | 0.0 | 0.00 | 0.00 | 0.00 | 88 | 1024.2 |
| 20260905091043 | 52 | 148 | 0.0 | 0.0 | 0.00 | 0.00 | 0.00 | 87 | 1024.3 |
| 20260905090542 | 53 | 137 | 0.0 | 0.0 | 0.00 | 0.00 | 0.00 | 87 | 1024.2 |
| 20260905090038 | 53 | 97 | 0.0 | 1.0 | 0.00 | 0.00 | 0.00 | 85 | 1024.2 |
| 20260905085536 | 53 | 226 | 0.0 | 1.0 | 0.00 | 0.00 | 0.00 | 86 | 1024.1 |
| 20260905085032 | 53 | 159 | 0.0 | 0.0 | 0.00 | 0.00 | 0.00 | 85 | 1024.1 |
| 20260905084531 | 53 | 202 | 0.0 | 0.0 | 0.00 | 0.00 | 0.00 | 84 | 1024.1 |
| 20260905084027 | 53 | 212 | 0.0 | 0.0 | 0.00 | 0.00 | 0.00 | 86 | 1024.1 |
| 20260905083516 | 52 | 183 | 0.0 | 0.0 | 0.00 | 0.00 | 0.00 | 88 | 1024.2 |
| 20260905083013 | 52 | 177 | 0.0 | 0.0 | 0.00 | 0.00 | 0.00 | 87 | 1024.2 |
| 20260905082508 | 53 | 174 | 0.0 | 0.0 | 0.00 | 0.00 | 0.00 | 86 | 1024.3 |
| 20260905082004 | 52 | 179 | 0.0 | 0.0 | 0.00 | 0.00 | 0.00 | 87 | 1024.5 |
| 20260905081457 | 52 | 177 | 0.0 | 0.0 | 0.00 | 0.00 | 0.00 | 88 | 1024.1 |
| 20260905080957 | 52 | 140 | 0.0 | 0.0 | 0.00 | 0.00 | 0.00 | 87 | 1024.2 |
| 20260905080452 | 53 | 168 | 0.0 | 0.0 | 0.00 | 0.00 | 0.00 | 85 | 1024.2 |
| 20260905075950 | 53 | 168 | 0.0 | 0.0 | 0.00 | 0.00 | 0.00 | 85 | 1024.5 |
| 20260905075445 | 54 | 159 | 0.0 | 0.0 | 0.00 | 0.00 | 0.00 | 84 | 1024.5 |
| 20260905074944 | 54 | 141 | 0.0 | 0.0 | 0.00 | 0.00 | 0.00 | 84 | 1024.2 |
| 20260905074440 | 53 | 192 | 0.0 | 0.0 | 0.00 | 0.00 | 0.00 | 84 | 1024.2 |
| 20260905073936 | 53 | 193 | 0.0 | 0.0 | 0.00 | 0.00 | 0.00 | 86 | 1024.1 |
| 20260905073430 | 53 | 192 | 0.0 | 0.0 | 0.00 | 0.00 | 0.00 | 88 | 1024.1 |
| 20260905072926 | 53 | 178 | 0.0 | 0.0 | 0.00 | 0.00 | 0.00 | 87 | 1024.1 |
| 20260905072420 | 53 | 134 | 0.0 | 0.0 | 0.00 | 0.00 | 0.00 | 87 | 1024.2 |
| 20260905071917 | 54 | 95 | 1.0 | 1.0 | 0.00 | 0.00 | 0.00 | 85 | 1024.2 |
| 20260905071414 | 53 | 205 | 0.0 | 0.0 | 0.00 | 0.00 | 0.00 | 83 | 1024.0 |
| 20260905070912 | 53 | 202 | 0.0 | 0.0 | 0.00 | 0.00 | 0.00 | 89 | 1024.1 |
| 20260905070409 | 53 | 181 | 0.0 | 0.0 | 0.00 | 0.00 | 0.00 | 89 | 1023.8 |
| 20260905065909 | 53 | 159 | 0.0 | 0.0 | 0.00 | 0.00 | 0.00 | 89 | 1024.0 |
| 20260905065407 | 53 | 115 | 0.0 | 1.0 | 0.00 | 0.00 | 0.00 | 87 | 1024.0 |
| 20260905064903 | 53 | 182 | 0.0 | 0.0 | 0.00 | 0.00 | 0.00 | 89 | 1023.8 |
| 20260905064358 | 53 | 169 | 0.0 | 0.0 | 0.00 | 0.00 | 0.00 | 88 | 1023.7 |
| 20260905063857 | 54 | 169 | 0.0 | 0.0 | 0.00 | 0.00 | 0.00 | 88 | 1023.6 |
| 20260905063352 | 54 | 137 | 0.0 | 0.0 | 0.00 | 0.00 | 0.00 | 87 | 1023.6 |
| 20260905062849 | 54 | 132 | 0.0 | 0.0 | 0.00 | 0.00 | 0.00 | 87 | 1023.5 |
| 20260905062348 | 54 | 144 | 0.0 | 0.0 | 0.00 | 0.00 | 0.00 | 87 | 1023.5 |
| 20260905061843 | 54 | 112 | 0.0 | 1.0 | 0.00 | 0.00 | 0.00 | 88 | 1023.7 |
| 20260905061337 | 54 | 159 | 0.0 | 0.0 | 0.00 | 0.00 | 0.00 | 87 | 1023.6 |
| 20260905060832 | 54 | 163 | 0.0 | 0.0 | 0.00 | 0.00 | 0.00 | 85 | 1023.5 |
| 20260905060329 | 54 | 163 | 0.0 | 0.0 | 0.00 | 0.00 | 0.00 | 85 | 1023.5 |
| 20260905055827 | 54 | 159 | 0.0 | 0.0 | 0.00 | 0.00 | 0.00 | 86 | 1023.5 |
| 20260905055322 | 55 | 159 | 0.0 | 0.0 | 0.00 | 0.00 | 0.00 | 85 | 1023.7 |
| 20260905054822 | 55 | 173 | 0.0 | 0.0 | 0.00 | 0.00 | 0.00 | 84 | 1023.4 |
| 20260905054319 | 55 | 150 | 0.0 | 0.0 | 0.00 | 0.00 | 0.00 | 85 | 1023.5 |
| 20260905053818 | 56 | 137 | 0.0 | 0.0 | 0.00 | 0.00 | 0.00 | 85 | 1023.5 |
| 20260905053313 | 55 | 114 | 0.0 | 0.0 | 0.00 | 0.00 | 0.00 | 84 | 1023.6 |
| 20260905052813 | 55 | 159 | 0.0 | 0.0 | 0.00 | 0.00 | 0.00 | 83 | 1023.6 |
| 20260905052308 | 55 | 159 | 0.0 | 0.0 | 0.00 | 0.00 | 0.00 | 85 | 1023.4 |
| 20260905051808 | 55 | 159 | 0.0 | 0.0 | 0.00 | 0.00 | 0.00 | 84 | 1023.5 |
| 20260905051304 | 56 | 159 | 0.0 | 0.0 | 0.00 | 0.00 | 0.00 | 84 | 1023.6 |
| 20260905050801 | 56 | 159 | 0.0 | 0.0 | 0.00 | 0.00 | 0.00 | 83 | 1023.5 |
| 20260905050256 | 57 | 154 | 0.0 | 0.0 | 0.00 | 0.00 | 0.00 | 82 | 1023.5 |
| 20260905045751 | 57 | 120 | 0.0 | 0.0 | 0.00 | 0.00 | 0.00 | 84 | 1023.4 |
| 20260905045246 | 56 | 167 | 0.0 | 0.0 | 0.00 | 0.00 | 0.00 | 80 | 1023.4 |
| 20260905044741 | 56 | 162 | 0.0 | 0.0 | 0.00 | 0.00 | 0.00 | 81 | 1023.5 |
| 20260905044231 | 57 | 159 | 0.0 | 0.0 | 0.00 | 0.00 | 0.00 | 81 | 1023.5 |
| 20260905043729 | 57 | 121 | 0.0 | 1.0 | 0.00 | 0.00 | 0.00 | 79 | 1023.6 |
| 20260905043229 | 58 | 143 | 0.0 | 0.0 | 0.00 | 0.00 | 0.00 | 78 | 1023.5 |
| 20260905042725 | 57 | 188 | 0.0 | 0.0 | 0.00 | 0.00 | 0.00 | 76 | 1023.2 |
| 20260905042224 | 58 | 155 | 0.0 | 0.0 | 0.00 | 0.00 | 0.00 | 78 | 1023.2 |
| 20260905041720 | 58 | 149 | 0.0 | 0.0 | 0.00 | 0.00 | 0.00 | 78 | 1023.2 |
| 20260905041215 | 59 | 172 | 0.0 | 0.0 | 0.00 | 0.00 | 0.00 | 75 | 1023.1 |
| 20260905040710 | 59 | 164 | 0.0 | 0.0 | 0.00 | 0.00 | 0.00 | 80 | 1023.2 |
| 20260905040208 | 58 | 143 | 0.0 | 0.0 | 0.00 | 0.00 | 0.00 | 77 | 1023.2 |
| 20260905035703 | 59 | 143 | 0.0 | 0.0 | 0.00 | 0.00 | 0.00 | 78 | 1023.1 |
| 20260905035200 | 59 | 143 | 0.0 | 0.0 | 0.00 | 0.00 | 0.00 | 78 | 1023.1 |
| 20260905034656 | 60 | 143 | 0.0 | 0.0 | 0.00 | 0.00 | 0.00 | 76 | 1023.4 |
| 20260905034155 | 60 | 132 | 0.0 | 0.0 | 0.00 | 0.00 | 0.00 | 75 | 1023.1 |
| 20260905033654 | 60 | 174 | 0.0 | 0.0 | 0.00 | 0.00 | 0.00 | 74 | 1023.1 |
| 20260905033150 | 60 | 178 | 0.0 | 0.0 | 0.00 | 0.00 | 0.00 | 72 | 1023.0 |
| 20260905032650 | 60 | 179 | 0.0 | 0.0 | 0.00 | 0.00 | 0.00 | 74 | 1022.8 |
| 20260905032150 | 60 | 168 | 0.0 | 0.0 | 0.00 | 0.00 | 0.00 | 74 | 1023.1 |
| 20260905031646 | 61 | 106 | 1.0 | 1.0 | 0.00 | 0.00 | 0.00 | 71 | 1023.1 |
| 20260905031141 | 61 | 157 | 0.0 | 0.0 | 0.00 | 0.00 | 0.00 | 70 | 1022.9 |
| 20260905030636 | 61 | 157 | 0.0 | 0.0 | 0.00 | 0.00 | 0.00 | 69 | 1022.5 |
| 20260905030131 | 62 | 142 | 0.0 | 0.0 | 0.00 | 0.00 | 0.00 | 70 | 1022.5 |
| 20260905025626 | 62 | 136 | 0.0 | 0.0 | 0.00 | 0.00 | 0.00 | 69 | 1022.4 |
| 20260905025122 | 63 | 88 | 1.0 | 2.0 | 0.00 | 0.00 | 0.00 | 69 | 1022.0 |
| 20260905024618 | 62 | 175 | 0.0 | 0.0 | 0.00 | 0.00 | 0.00 | 67 | 1022.0 |
| 20260905024112 | 62 | 207 | 0.0 | 1.0 | 0.00 | 0.00 | 0.00 | 69 | 1022.0 |
| 20260905023608 | 62 | 160 | 0.0 | 0.0 | 0.00 | 0.00 | 0.00 | 73 | 1021.9 |
| 20260905023102 | 62 | 177 | 0.0 | 0.0 | 0.00 | 0.00 | 0.00 | 74 | 1021.9 |
| 20260905022601 | 62 | 141 | 0.0 | 0.0 | 0.00 | 0.00 | 0.00 | 74 | 1021.7 |
| 20260905022057 | 63 | 141 | 0.0 | 0.0 | 0.00 | 0.00 | 0.00 | 77 | 1021.4 |
| 20260905021556 | 63 | 150 | 0.0 | 0.0 | 0.00 | 0.00 | 0.00 | 77 | 1021.8 |
| 20260905021052 | 64 | 135 | 0.0 | 0.0 | 0.00 | 0.00 | 0.00 | 75 | 1021.3 |
| 20260905020551 | 65 | 142 | 0.0 | 0.0 | 0.00 | 0.00 | 0.00 | 73 | 1021.4 |
| 20260905020047 | 65 | 143 | 0.0 | 0.0 | 0.00 | 0.00 | 0.00 | 69 | 1021.4 |
| 20260905015544 | 66 | 181 | 0.0 | 0.0 | 0.00 | 0.00 | 0.00 | 66 | 1021.2 |
| 20260905015039 | 66 | 163 | 0.0 | 0.0 | 0.00 | 0.00 | 0.00 | 66 | 1021.2 |
| 20260905014534 | 67 | 167 | 0.0 | 0.0 | 0.00 | 0.00 | 0.00 | 68 | 1021.3 |
| 20260905014029 | 67 | 119 | 0.0 | 0.0 | 0.00 | 0.00 | 0.00 | 66 | 1021.2 |
| 20260905013525 | 68 | 111 | 1.0 | 1.0 | 0.00 | 0.00 | 0.00 | 66 | 1021.2 |
| 20260905013022 | 70 | 112 | 0.0 | 1.0 | 0.00 | 0.00 | 0.00 | 60 | 1021.0 |
| 20260905012515 | 71 | 189 | 0.0 | 0.0 | 0.00 | 0.00 | 0.00 | 51 | 1020.9 |
| 20260905012013 | 72 | 231 | 0.0 | 1.0 | 0.00 | 0.00 | 0.00 | 51 | 1020.9 |
| 20260905011508 | 72 | 198 | 0.0 | 0.0 | 0.00 | 0.00 | 0.00 | 49 | 1021.0 |
| 20260905011003 | 72 | 190 | 0.0 | 0.0 | 0.00 | 0.00 | 0.00 | 49 | 1021.0 |
| 20260905010503 | 73 | 206 | 0.0 | 1.0 | 0.00 | 0.00 | 0.00 | 48 | 1021.0 |
| 20260905005959 | 73 | 189 | 0.0 | 0.0 | 0.00 | 0.00 | 0.00 | 49 | 1021.2 |
| 20260905005455 | 74 | 214 | 0.0 | 0.0 | 0.00 | 0.00 | 0.00 | 49 | 1021.0 |
| 20260905004950 | 75 | 215 | 0.0 | 1.0 | 0.00 | 0.00 | 0.00 | 48 | 1021.0 |
| 20260905004445 | 76 | 211 | 0.0 | 1.0 | 0.00 | 0.00 | 0.00 | 46 | 1020.9 |
| 20260905003940 | 77 | 168 | 0.0 | 0.0 | 0.00 | 0.00 | 0.00 | 45 | 1020.8 |
| 20260905003436 | 78 | 179 | 0.0 | 0.0 | 0.00 | 0.00 | 0.00 | 42 | 1020.7 |
| 20260905002932 | 79 | 123 | 1.0 | 1.0 | 0.00 | 0.00 | 0.00 | 43 | 1021.0 |
| 20260905002431 | 80 | 170 | 0.0 | 0.0 | 0.00 | 0.00 | 0.00 | 40 | 1020.9 |
| 20260905001926 | 81 | 121 | 0.0 | 0.0 | 0.00 | 0.00 | 0.00 | 38 | 1021.2 |
| 20260905001421 | 82 | 214 | 1.0 | 1.0 | 0.00 | 0.00 | 0.00 | 36 | 1020.9 |
| 20260905000915 | 83 | 206 | 1.0 | 1.0 | 0.00 | 0.00 | 0.00 | 35 | 1020.8 |
| 20260905000411 | 84 | 254 | 0.0 | 1.0 | 0.00 | 0.00 | 0.00 | 33 | 1020.9 |
| 20260904235906 | 84 | 261 | 1.0 | 1.0 | 0.00 | 0.00 | 0.00 | 34 | 1020.7 |
| 20260904235401 | 86 | 232 | 0.0 | 1.0 | 0.00 | 0.00 | 0.00 | 33 | 1020.6 |
| 20260904234855 | 85 | 181 | 0.0 | 0.0 | 0.00 | 0.00 | 0.00 | 37 | 1020.6 |
| 20260904234350 | 85 | 152 | 1.0 | 2.0 | 0.00 | 0.00 | 0.00 | 31 | 1020.8 |
| 20260904233846 | 85 | 258 | 3.0 | 3.0 | 0.00 | 0.00 | 0.00 | 30 | 1020.9 |
| 20260904233342 | 86 | 188 | 2.0 | 2.0 | 0.00 | 0.00 | 0.00 | 33 | 1020.7 |
| 20260904232839 | 86 | 233 | 1.0 | 1.0 | 0.00 | 0.00 | 0.00 | 31 | 1020.7 |
| 20260904232335 | 86 | 169 | 0.0 | 1.0 | 0.00 | 0.00 | 0.00 | 31 | 1020.4 |
| 20260904231830 | 85 | 185 | 0.0 | 1.0 | 0.00 | 0.00 | 0.00 | 33 | 1020.7 |
| 20260904231325 | 84 | 90 | 1.0 | 1.0 | 0.00 | 0.00 | 0.00 | 33 | 1020.8 |
| 20260904230820 | 85 | 132 | 0.0 | 0.0 | 0.00 | 0.00 | 0.00 | 34 | 1020.8 |
| 20260904230319 | 87 | 213 | 0.0 | 0.0 | 0.00 | 0.00 | 0.00 | 36 | 1020.8 |
| 20260904225814 | 86 | 217 | 2.0 | 3.0 | 0.00 | 0.00 | 0.00 | 32 | 1021.2 |
| 20260904225312 | 85 | 210 | 0.0 | 1.0 | 0.00 | 0.00 | 0.00 | 39 | 1021.2 |
| 20260904224812 | 86 | 110 | 0.0 | 0.0 | 0.00 | 0.00 | 0.00 | 35 | 1020.8 |
| 20260904224308 | 85 | 180 | 0.0 | 1.0 | 0.00 | 0.00 | 0.00 | 35 | 1021.0 |
| 20260904223807 | 85 | 165 | 0.0 | 0.0 | 0.00 | 0.00 | 0.00 | 34 | 1021.0 |
| 20260904223301 | 84 | 214 | 1.0 | 2.0 | 0.00 | 0.00 | 0.00 | 34 | 1021.0 |
| 20260904222758 | 83 | 178 | 1.0 | 1.0 | 0.00 | 0.00 | 0.00 | 35 | 1021.2 |
| 20260904222252 | 85 | 153 | 0.0 | 1.0 | 0.00 | 0.00 | 0.00 | 33 | 1021.2 |
| 20260904221747 | 84 | 207 | 0.0 | 0.0 | 0.00 | 0.00 | 0.00 | 44 | 1021.3 |
| 20260904221242 | 84 | 257 | 2.0 | 2.0 | 0.00 | 0.00 | 0.00 | 34 | 1021.0 |
| 20260904220737 | 83 | 175 | 1.0 | 1.0 | 0.00 | 0.00 | 0.00 | 36 | 1021.3 |
| 20260904220236 | 81 | 209 | 1.0 | 1.0 | 0.00 | 0.00 | 0.00 | 38 | 1021.3 |
| 20260904215732 | 82 | 245 | 1.0 | 1.0 | 0.00 | 0.00 | 0.00 | 36 | 1021.3 |
| 20260904215227 | 85 | 105 | 0.0 | 1.0 | 0.00 | 0.00 | 0.00 | 36 | 1021.4 |
| 20260904214722 | 84 | 175 | 3.0 | 3.0 | 0.00 | 0.00 | 0.00 | 33 | 1021.2 |
| 20260904214218 | 82 | 231 | 0.0 | 1.0 | 0.00 | 0.00 | 0.00 | 35 | 1021.4 |
| 20260904213716 | 85 | 248 | 1.0 | 2.0 | 0.00 | 0.00 | 0.00 | 36 | 1021.4 |
| 20260904213212 | 86 | 107 | 0.0 | 1.0 | 0.00 | 0.00 | 0.00 | 39 | 1021.4 |
| 20260904212707 | 85 | 210 | 2.0 | 2.0 | 0.00 | 0.00 | 0.00 | 33 | 1021.7 |
| 20260904212202 | 84 | 179 | 0.0 | 1.0 | 0.00 | 0.00 | 0.00 | 35 | 1021.7 |
| 20260904211701 | 82 | 170 | 0.0 | 0.0 | 0.00 | 0.00 | 0.00 | 37 | 1021.7 |
| 20260904211156 | 82 | 166 | 0.0 | 1.0 | 0.00 | 0.00 | 0.00 | 36 | 1021.9 |
| 20260904210652 | 82 | 23 | 1.0 | 2.0 | 0.00 | 0.00 | 0.00 | 39 | 1021.8 |
| 20260904210147 | 86 | 192 | 0.0 | 0.0 | 0.00 | 0.00 | 0.00 | 34 | 1022.1 |
| 20260904205642 | 86 | 208 | 2.0 | 2.0 | 0.00 | 0.00 | 0.00 | 34 | 1021.9 |
| 20260904205139 | 86 | 149 | 0.0 | 0.0 | 0.00 | 0.00 | 0.00 | 43 | 1022.3 |
| 20260904204634 | 85 | 170 | 0.0 | 1.0 | 0.00 | 0.00 | 0.00 | 37 | 1022.0 |
| 20260904204130 | 83 | 183 | 1.0 | 1.0 | 0.00 | 0.00 | 0.00 | 38 | 1022.1 |
| 20260904203626 | 83 | 154 | 0.0 | 0.0 | 0.00 | 0.00 | 0.00 | 37 | 1022.4 |
| 20260904203123 | 83 | 278 | 1.0 | 2.0 | 0.00 | 0.00 | 0.00 | 38 | 1022.6 |
| 20260904202618 | 83 | 200 | 1.0 | 1.0 | 0.00 | 0.00 | 0.00 | 37 | 1022.5 |
| 20260904202115 | 81 | 209 | 1.0 | 1.0 | 0.00 | 0.00 | 0.00 | 39 | 1022.6 |
| 20260904201614 | 82 | 356 | 0.0 | 1.0 | 0.00 | 0.00 | 0.00 | 43 | 1022.8 |
| 20260904201109 | 84 | 162 | 0.0 | 1.0 | 0.00 | 0.00 | 0.00 | 38 | 1022.5 |
| 20260904200609 | 83 | 161 | 2.0 | 2.0 | 0.00 | 0.00 | 0.00 | 36 | 1022.6 |
| 20260904200104 | 81 | 137 | 3.0 | 6.0 | 0.00 | 0.00 | 0.00 | 43 | 1022.6 |
| 20260904195602 | 81 | 173 | 0.0 | 0.0 | 0.00 | 0.00 | 0.00 | 43 | 1022.9 |
| 20260904195101 | 79 | 153 | 0.0 | 1.0 | 0.00 | 0.00 | 0.00 | 45 | 1023.1 |
| 20260904194556 | 79 | 92 | 0.0 | 1.0 | 0.00 | 0.00 | 0.00 | 43 | 1023.0 |
| 20260904194051 | 79 | 81 | 3.0 | 3.0 | 0.00 | 0.00 | 0.00 | 43 | 1023.0 |
| 20260904193546 | 80 | 48 | 2.0 | 2.0 | 0.00 | 0.00 | 0.00 | 44 | 1022.9 |
| 20260904193043 | 78 | 202 | 1.0 | 1.0 | 0.00 | 0.00 | 0.00 | 44 | 1023.2 |
| 20260904192542 | 78 | 284 | 1.0 | 1.0 | 0.00 | 0.00 | 0.00 | 45 | 1023.4 |
| 20260904192038 | 78 | 114 | 1.0 | 1.0 | 0.00 | 0.00 | 0.00 | 43 | 1023.1 |
| 20260904191534 | 80 | 258 | 1.0 | 1.0 | 0.00 | 0.00 | 0.00 | 40 | 1023.2 |
| 20260904191030 | 82 | 347 | 0.0 | 1.0 | 0.00 | 0.00 | 0.00 | 39 | 1023.4 |
| 20260904190526 | 81 | 75 | 0.0 | 0.0 | 0.00 | 0.00 | 0.00 | 42 | 1023.2 |
| 20260904190022 | 81 | 93 | 0.0 | 1.0 | 0.00 | 0.00 | 0.00 | 40 | 1023.2 |
| 20260904185518 | 80 | 201 | 2.0 | 2.0 | 0.00 | 0.00 | 0.00 | 40 | 1023.4 |
| 20260904185012 | 78 | 91 | 0.0 | 1.0 | 0.00 | 0.00 | 0.00 | 44 | 1023.6 |
| 20260904184507 | 77 | 156 | 0.0 | 0.0 | 0.00 | 0.00 | 0.00 | 47 | 1023.5 |
| 20260904184002 | 77 | 176 | 0.0 | 1.0 | 0.00 | 0.00 | 0.00 | 45 | 1023.4 |
| 20260904183457 | 77 | 182 | 0.0 | 0.0 | 0.00 | 0.00 | 0.00 | 44 | 1023.4 |
| 20260904182952 | 78 | 155 | 1.0 | 1.0 | 0.00 | 0.00 | 0.00 | 43 | 1023.7 |
| 20260904182448 | 78 | 229 | 1.0 | 2.0 | 0.00 | 0.00 | 0.00 | 43 | 1023.6 |
| 20260904181947 | 78 | 200 | 1.0 | 2.0 | 0.00 | 0.00 | 0.00 | 44 | 1023.8 |
| 20260904181443 | 78 | 140 | 1.0 | 1.0 | 0.00 | 0.00 | 0.00 | 42 | 1023.6 |
| 20260904180938 | 78 | 138 | 0.0 | 0.0 | 0.00 | 0.00 | 0.00 | 43 | 1024.0 |
| 20260904180433 | 77 | 182 | 1.0 | 1.0 | 0.00 | 0.00 | 0.00 | 49 | 1023.7 |
| 20260904175932 | 76 | 154 | 0.0 | 0.0 | 0.00 | 0.00 | 0.00 | 45 | 1023.8 |
| 20260904175431 | 76 | 231 | 2.0 | 2.0 | 0.00 | 0.00 | 0.00 | 44 | 1023.8 |
| 20260904174926 | 77 | 211 | 1.0 | 2.0 | 0.00 | 0.00 | 0.00 | 42 | 1023.8 |
| 20260904174421 | 76 | 145 | 2.0 | 3.0 | 0.00 | 0.00 | 0.00 | 49 | 1023.8 |
| 20260904173918 | 75 | 157 | 1.0 | 1.0 | 0.00 | 0.00 | 0.00 | 48 | 1024.0 |
| 20260904173413 | 74 | 101 | 1.0 | 1.0 | 0.00 | 0.00 | 0.00 | 46 | 1024.0 |
| 20260904172909 | 74 | 174 | 1.0 | 1.0 | 0.00 | 0.00 | 0.00 | 46 | 1023.8 |
| 20260904172408 | 73 | 112 | 0.0 | 0.0 | 0.00 | 0.00 | 0.00 | 47 | 1023.8 |
| 20260904171903 | 72 | 93 | 1.0 | 2.0 | 0.00 | 0.00 | 0.00 | 51 | 1024.0 |